[[{"header":{"parameterUnit":"m.s-1","parameterCategory":1,"la1":30.2991,"la2":30.254,"lo1":-89.0895,"lo2":-89.0444,"dy":0.0017,"dx":0.0017,"nx":28,"ny":28,"refTime":"2023-10-28T21:00:00:Z","depth":0,"parameterNumber":2,"parameterNumberName":"U-component_of_WINDS"},"data":[0,0,0,0,0,0,0,0,0,0,0,0,0,0,0,0,0,0,0,0,0,0,0,0,0,0,0,0,0,0,0,0,0,0,0,0,0,0,0,0,0,0,0,0,0,0,0,0,0,0,0,0,0,0,0,0,0,0,-1.7851,-1.7851,0,-1.7824,-1.7824,-1.7824,-1.7787,-1.7786,-1.7786,-1.7785,-1.776,-1.7759,-1.7759,0,0,0,0,0,0,0,0,0,0,0,0,0,-1.7874,-1.7873,-1.7851,-1.7851,-1.785,-1.7824,-1.7824,-1.7823,-1.7787,-1.7786,-1.7786,-1.7785,-1.776,-1.7759,-1.7759,0,0,0,0,0,0,0,0,0,0,0,0,0,-1.7857,-1.7873,-1.7851,-1.7829,-1.7827,-1.7824,-1.7824,-1.7823,-1.7787,-1.7786,-1.7785,-1.7785,-1.776,-1.7759,-1.7759,-1.7777,0,0,-1.7759,-1.7759,0,0,0,0,0,0,0,0,-1.7858,-1.7856,-1.7833,-1.7831,-1.7828,-1.7808,-1.7822,-1.7808,-1.7788,-1.7802,-1.7785,-1.7784,-1.7777,-1.7775,-1.7772,-1.7776,-1.7774,-1.7759,-1.7759,-1.7759,-1.7759,0,0,0,0,0,0,0,-1.7859,-1.7857,-1.784,-1.7832,-1.783,-1.7821,-1.7818,-1.7819,-1.7795,-1.7801,-1.7798,-1.7795,-1.7775,-1.7772,-1.7771,-1.7774,-1.7759,-1.7759,-1.7759,-1.7758,-1.7792,-1.7793,0,0,0,0,0,0,-1.7863,-1.7858,-1.7841,-1.784,-1.7841,-1.7822,-1.7818,-1.7815,-1.7795,-1.7791,-1.7796,-1.7794,-1.7773,-1.7771,-1.777,-1.779,-1.7759,-1.7758,-1.7758,-1.7791,-1.7793,-1.7794,0,0,0,0,0,0,-1.7864,-1.7862,-1.7842,-1.7848,-1.7845,-1.7822,-1.782,-1.7815,-1.7812,-1.7791,-1.7787,-1.7798,-1.7772,-1.777,-1.7776,-1.7788,-1.7758,-1.7758,-1.779,-1.7792,-1.7793,-1.7829,0,0,0,0,0,0,-1.7865,-1.7863,-1.7868,-1.7849,-1.7845,-1.7848,-1.782,-1.7815,-1.7812,-1.7808,-1.7791,-1.7788,-1.7771,-1.7776,-1.7775,-1.7788,-1.7758,-1.7789,-1.7791,-1.7793,-1.7827,-1.7832,-1.7836,0,0,0,0,0,-1.7866,-1.788,-1.7869,-1.7867,-1.7851,-1.7848,-1.7846,-1.7827,-1.7813,-1.7819,-1.7806,-1.7788,-1.7787,-1.7777,-1.7776,-1.7788,-1.7788,-1.779,-1.7792,-1.7825,-1.7831,-1.7836,0,0,0,0,0,0,-1.7901,-1.7877,-1.7864,-1.7872,-1.7863,-1.7842,-1.7849,-1.7833,-1.7828,-1.7825,-1.7802,-1.7798,-1.7807,-1.7798,-1.7787,-1.7805,-1.7785,-1.7787,-1.781,-1.7816,-1.782,-1.7822,-1.7758,0,0,0,0,0,-1.791,-1.7909,-1.7888,-1.7897,-1.7893,-1.7872,-1.787,-1.7855,-1.7845,-1.7841,-1.7828,-1.7819,-1.7817,-1.7816,-1.7812,-1.7826,-1.7822,-1.7834,-1.7839,-1.7843,-1.7845,-1.7852,-1.7857,-1.7801,-1.7801,-1.7801,0,0,-1.7928,-1.7915,-1.7915,-1.7904,-1.7895,-1.7895,-1.7869,-1.787,-1.787,-1.7841,-1.7845,-1.7836,-1.7825,-1.7834,-1.7838,-1.7827,-1.786,-1.7845,-1.7849,-1.7849,-1.7855,-1.786,-1.7865,-1.7803,-1.7802,-1.7802,0,0,-1.7961,-1.7951,-1.7957,-1.7949,-1.7936,-1.7922,-1.7924,-1.7906,-1.7899,-1.7903,-1.7881,-1.7882,-1.7878,-1.7871,-1.7867,-1.79,-1.7884,-1.79,-1.7924,-1.7931,-1.7936,-1.7939,-1.7952,-1.7956,-1.7902,-1.7902,-1.7902,0,-1.7985,-1.7984,-1.7963,-1.7966,-1.7962,-1.7936,-1.7943,-1.7936,-1.7923,-1.7921,-1.791,-1.7905,-1.7896,-1.7904,-1.7912,-1.791,-1.7912,-1.7901,-1.7937,-1.794,-1.7944,-1.7955,-1.7959,-1.7904,-1.7904,-1.7903,-1.7903,0,-1.8015,-1.8015,-1.8022,-1.801,-1.8007,-1.8012,-1.7992,-1.7992,-1.7979,-1.7967,-1.7972,-1.796,-1.7954,-1.7955,-1.7942,-1.7962,-1.7956,-1.7941,-1.792,-1.7951,-1.7962,-1.7966,-1.7907,-1.7906,-1.7905,-1.7905,0,0,-1.8069,-1.8046,-1.8049,-1.8043,-1.8027,-1.8027,-1.8032,-1.8026,-1.8027,-1.8019,-1.8023,-1.8021,-1.8008,-1.8003,-1.7989,-1.7996,-1.8024,-1.798,-1.798,-1.7989,-1.8046,-1.8057,-1.8062,-1.8013,-1.8014,-1.8014,-1.8047,0,-1.8099,-1.8105,-1.8086,-1.8097,-1.8098,-1.8074,-1.8078,-1.807,-1.8059,-1.8058,-1.8047,-1.8046,-1.8028,-1.8025,-1.8031,-1.8019,-1.8035,-1.8016,-1.8017,-1.8017,-1.802,-1.8067,-1.8079,-1.811,-1.8051,-1.8051,-1.8052,0,-1.8135,-1.8129,-1.814,-1.8124,-1.8124,-1.8128,-1.8122,-1.8121,-1.8112,-1.8104,-1.8099,-1.8083,-1.8088,-1.8069,-1.8076,-1.8064,-1.8063,-1.8058,-1.8058,-1.8058,-1.8036,-1.8068,-1.812,-1.8124,-1.8058,-1.8057,-1.8057,0,-1.8173,-1.8168,-1.8174,-1.817,-1.8153,-1.8156,-1.8149,-1.8139,-1.8137,-1.8132,-1.8131,-1.8127,-1.8124,-1.8122,-1.8106,-1.8093,-1.8115,-1.8094,-1.8109,-1.8109,-1.8114,-1.8114,-1.8166,-1.8114,-1.8114,-1.8114,-1.8114,0,-1.8209,-1.8217,-1.8191,-1.8195,-1.8204,-1.8183,-1.8193,-1.8183,-1.8174,-1.8177,-1.8156,-1.8159,-1.8137,-1.8138,-1.8126,-1.8134,-1.8133,-1.8127,-1.8124,-1.8129,-1.813,-1.8128,-1.8125,-1.8115,-1.8115,-1.8115,-1.8114,0,-1.8253,-1.8236,-1.8242,-1.8225,-1.8221,-1.8228,-1.8214,-1.8218,-1.8206,-1.8209,-1.8209,-1.8191,-1.8191,-1.8175,-1.8172,-1.8163,-1.8177,-1.8169,-1.818,-1.8178,-1.8193,-1.8192,-1.8246,-1.8253,-1.8196,-1.8197,-1.8197,0,-1.8277,-1.8282,-1.8266,-1.8266,-1.826,-1.826,-1.8258,-1.8239,-1.8238,-1.8229,-1.8234,-1.8232,-1.8229,-1.8231,-1.8218,-1.8216,-1.8208,-1.8227,-1.8208,-1.8213,-1.8209,-1.8209,-1.821,-1.8232,-1.8232,-1.8233,-1.8233,0,-1.8321,-1.8313,-1.8311,-1.8306,-1.8304,-1.83,-1.8294,-1.8295,-1.8275,-1.8275,-1.8274,-1.8273,-1.8269,-1.8268,-1.8264,-1.8258,-1.8243,-1.824,-1.8243,-1.8248,-1.8254,-1.8252,-1.8191,-1.8238,-1.8238,-1.8238,-1.8237,-1.8237,-1.8356,-1.836,-1.835,-1.8348,-1.8342,-1.8338,-1.834,-1.8329,-1.8329,-1.8324,-1.8313,-1.8315,-1.8307,-1.8299,-1.8294,-1.8296,-1.8287,-1.8291,-1.8293,-1.8294,-1.8297,-1.8254,-1.8295,-1.8295,-1.8295,-1.8295,-1.8295,0,-1.8399,-1.8392,-1.8391,-1.8384,-1.8383,-1.8369,-1.8362,-1.8362,-1.8364,-1.8357,-1.8356,-1.8356,-1.8355,-1.8343,-1.8341,-1.8345,-1.8338,-1.8345,-1.8344,-1.8343,-1.8306,-1.8303,-1.835,-1.835,-1.835,-1.835,-1.835,-1.835,-1.8422,-1.8428,-1.8419,-1.8423,-1.8416,-1.8417,-1.8415,-1.8411,-1.8405,-1.8406,-1.8406,-1.8398,-1.8389,-1.8386,-1.8385,-1.8382,-1.8382,-1.8392,-1.8386,-1.8351,-1.8346,-1.8341,-1.8338,-1.8392,-1.8392,-1.8423,-1.8424,-1.8424]},{"header":{"parameterUnit":"m.s-1","parameterCategory":1,"la1":30.2991,"la2":30.254,"lo1":-89.0895,"lo2":-89.0444,"dy":0.0017,"dx":0.0017,"nx":28,"ny":28,"refTime":"2023-10-28T21:00:00:Z","depth":0,"parameterNumber":3,"parameterNumberName":"V-component_of_WINDS"},"data":[0,0,0,0,0,0,0,0,0,0,0,0,0,0,0,0,0,0,0,0,0,0,0,0,0,0,0,0,0,0,0,0,0,0,0,0,0,0,0,0,0,0,0,0,0,0,0,0,0,0,0,0,0,0,0,0,0,0,1.4288,1.4287,0,1.4169,1.4167,1.4166,1.4092,1.4092,1.4092,1.4091,1.3962,1.3959,1.3956,0,0,0,0,0,0,0,0,0,0,0,0,0,1.4448,1.4445,1.4288,1.4287,1.4285,1.4169,1.4167,1.4166,1.4093,1.4092,1.4092,1.4091,1.3963,1.396,1.3956,0,0,0,0,0,0,0,0,0,0,0,0,0,1.4359,1.4445,1.4289,1.4235,1.4229,1.4169,1.4167,1.4165,1.4093,1.4092,1.4092,1.4091,1.3965,1.396,1.3955,1.3938,0,0,1.3941,1.3939,0,0,0,0,0,0,0,0,1.4364,1.4353,1.4244,1.4239,1.4232,1.4145,1.4176,1.4089,1.4093,1.4144,1.4091,1.4091,1.4023,1.4014,1.3992,1.3932,1.3926,1.3941,1.3938,1.3936,1.3935,0,0,0,0,0,0,0,1.437,1.4357,1.4241,1.4243,1.4235,1.4215,1.4202,1.4159,1.4088,1.414,1.4134,1.4121,1.402,1.3997,1.3989,1.3924,1.3941,1.3937,1.3934,1.3932,1.3844,1.3844,0,0,0,0,0,0,1.4385,1.4363,1.4244,1.4237,1.4298,1.4213,1.4198,1.4173,1.4088,1.4075,1.4122,1.4118,1.4005,1.3994,1.3984,1.3958,1.3936,1.3932,1.3929,1.3843,1.3844,1.3844,0,0,0,0,0,0,1.4389,1.4376,1.4249,1.4299,1.4281,1.4211,1.4184,1.4171,1.4149,1.4075,1.4061,1.4112,1.4004,1.399,1.395,1.3952,1.393,1.3925,1.3843,1.3844,1.3844,1.3906,0,0,0,0,0,0,1.4394,1.4377,1.4371,1.4299,1.4279,1.422,1.4184,1.4169,1.4142,1.4136,1.4062,1.4049,1.4003,1.3958,1.3946,1.3946,1.3922,1.3842,1.3843,1.3844,1.3904,1.3909,1.3913,0,0,0,0,0,1.44,1.4391,1.4371,1.4357,1.427,1.422,1.4208,1.4157,1.4142,1.4134,1.4087,1.4052,1.3955,1.3954,1.394,1.3939,1.3842,1.3843,1.3844,1.3901,1.3908,1.3913,0,0,0,0,0,0,1.4463,1.4381,1.4357,1.4326,1.4281,1.4208,1.4196,1.4165,1.4121,1.4117,1.4053,1.4037,1.4004,1.3967,1.3968,1.3917,1.3894,1.3892,1.3943,1.3948,1.3953,1.3962,1.3918,0,0,0,0,0,1.4473,1.4442,1.4371,1.435,1.4329,1.4267,1.4243,1.4208,1.4158,1.4137,1.4087,1.4038,1.3997,1.397,1.3928,1.3898,1.3881,1.389,1.3895,1.39,1.3899,1.3881,1.3884,1.3848,1.3848,1.3848,0,0,1.4494,1.4445,1.4429,1.4361,1.4322,1.429,1.4251,1.4218,1.4193,1.4131,1.4092,1.4053,1.3994,1.396,1.3942,1.3928,1.3905,1.3901,1.3905,1.3901,1.3882,1.3886,1.3889,1.3848,1.3848,1.3848,0,0,1.4515,1.4475,1.4454,1.4416,1.4359,1.4318,1.4313,1.4245,1.4218,1.4178,1.4132,1.41,1.4029,1.399,1.396,1.3969,1.3934,1.3957,1.3982,1.3965,1.3968,1.397,1.3973,1.3975,1.3956,1.3956,1.3956,0,1.4547,1.4498,1.4446,1.4417,1.4388,1.4335,1.4312,1.4277,1.4208,1.4189,1.4175,1.4087,1.4043,1.3999,1.4002,1.3979,1.3971,1.3964,1.3972,1.3974,1.3975,1.3977,1.3979,1.3959,1.3959,1.3958,1.3958,0,1.4541,1.4507,1.4497,1.4435,1.4405,1.4379,1.4322,1.4297,1.4265,1.4226,1.4185,1.4131,1.4078,1.4064,1.4031,1.4016,1.4009,1.3985,1.396,1.3983,1.3984,1.3984,1.3964,1.3962,1.3962,1.3961,0,0,1.4596,1.4508,1.4505,1.4476,1.441,1.4382,1.4353,1.4304,1.4284,1.4238,1.4212,1.4155,1.4133,1.41,1.4061,1.4047,1.4058,1.4024,1.4022,1.4032,1.4038,1.4057,1.4059,1.4035,1.4035,1.4035,1.4043,0,1.4607,1.4556,1.4509,1.4474,1.4442,1.4392,1.4367,1.4323,1.4285,1.4252,1.4209,1.417,1.4143,1.4123,1.4107,1.406,1.4058,1.4059,1.4009,1.4008,1.4025,1.4059,1.4079,1.4089,1.4043,1.4043,1.4043,0,1.4613,1.4573,1.4536,1.4474,1.4459,1.4438,1.4389,1.4358,1.4306,1.428,1.4245,1.4205,1.4171,1.4151,1.4103,1.4105,1.4082,1.4056,1.4055,1.4048,1.4027,1.4053,1.409,1.4092,1.4043,1.4043,1.4043,0,1.4658,1.4594,1.4564,1.4541,1.4468,1.4454,1.4423,1.4371,1.4345,1.4301,1.4284,1.4236,1.421,1.4173,1.4122,1.4112,1.4079,1.4054,1.4056,1.4057,1.405,1.4051,1.4085,1.4036,1.4036,1.4036,1.4036,0,1.4676,1.4655,1.4584,1.4565,1.454,1.4486,1.4462,1.4426,1.4381,1.4353,1.4305,1.428,1.4214,1.418,1.4139,1.4106,1.4094,1.4071,1.406,1.4075,1.4078,1.4059,1.4057,1.4036,1.4036,1.4036,1.4036,0,1.4721,1.4673,1.4637,1.4572,1.4555,1.4539,1.4483,1.4462,1.4423,1.4388,1.4377,1.4314,1.4273,1.4218,1.4158,1.4131,1.4102,1.4085,1.412,1.4114,1.4118,1.4119,1.414,1.414,1.4092,1.4093,1.4093,0,1.4736,1.4719,1.4653,1.4633,1.4604,1.457,1.4544,1.449,1.4465,1.4406,1.4392,1.4348,1.4309,1.4244,1.4192,1.4146,1.4128,1.4138,1.412,1.4136,1.4128,1.413,1.4128,1.4143,1.4144,1.4144,1.4145,0,1.4766,1.4744,1.4709,1.4666,1.4637,1.46,1.456,1.4546,1.4483,1.4457,1.4415,1.4385,1.4326,1.4281,1.4229,1.4194,1.4159,1.4151,1.4149,1.4164,1.4185,1.4174,1.4133,1.4151,1.415,1.415,1.4149,1.4149,1.4797,1.478,1.4732,1.4695,1.466,1.4625,1.4603,1.4563,1.4527,1.4477,1.4446,1.4406,1.4355,1.4282,1.4249,1.4215,1.4201,1.4198,1.4197,1.4197,1.4203,1.4191,1.4205,1.4205,1.4205,1.4204,1.4204,0,1.4825,1.4793,1.4759,1.4707,1.4678,1.4651,1.4606,1.4583,1.4549,1.4505,1.4469,1.4421,1.4379,1.4325,1.4278,1.4261,1.4244,1.4251,1.4251,1.4244,1.4217,1.4224,1.4266,1.4266,1.4266,1.4266,1.4266,1.4266,1.4837,1.4808,1.478,1.4733,1.4699,1.4661,1.4638,1.4605,1.4571,1.4521,1.4486,1.4452,1.4404,1.4354,1.4313,1.4298,1.4283,1.4295,1.4275,1.4251,1.4245,1.424,1.4246,1.4292,1.4292,1.4304,1.4304,1.4304]}]]